Regional Weather Roundup
Issued by NWS

Home | Current Version | Previous Version | Graphics & Text | Print | Product List | Glossary On
Versions: 1 2 3 4 5 6 7 8 9 10 11 12 13 14 15 16 17 18 19 20 21 22 23 24 25 26 27 28 29 30 31 32 33 34 35 36 37 38 39 40 41 42 43 44 45 46 47 48 49 50
000
ASUS43 KMPX 022301
RWRMN
WEATHER ROUNDUP FOR MINNESOTA
NATIONAL WEATHER SERVICE TWIN CITIES/CHANHASSEN MN
600 PM CDT SUN AUG 02 2015


NOTE: "FAIR" INDICATES FEW OR NO CLOUDS BELOW 12,000 FEET WITH NO
SIGNIFICANT WEATHER AND/OR OBSTRUCTIONS TO VISIBILITY. N/A MEANS
CURRENT SKY AND/OR WEATHER CONDITIONS ARE NOT AVAILABLE.

MNZ060>063-068>070-030000-
   Twin Cities Metro

CITY           SKY/WX    TMP DP  RH WIND       PRES   REMARKS
TWIN CITIES    MOSUNNY   82  57  42 NW22G29   29.72R
ST PAUL        PTSUNNY   82  60  47 NW16      29.71R
CRYSTAL        MOSUNNY   83  56  39 NW16G24   29.71R
BLAINE         MOSUNNY   82  59  44 NW18G24   29.72
LAKEVILLE      SUNNY     79  61  53 NW14      29.73S
EDEN PRAIRIE   MOSUNNY   83  58  42 NW10G22   29.72R
SOUTH ST PAUL  PTSUNNY   82  58  43 NW14G21   29.71R
LAKE ELMO      FAIR      81  61  50 NW10G20   29.72S
$$
MNZ001>005-007-008-013>017-022>024-027-028-030000-
   Northwest Minnesota

CITY           SKY/WX    TMP DP  RH WIND       PRES   REMARKS
BEMIDJI        MOSUNNY   71  45  38 NW23G30   29.80R
HALLOCK        SUNNY     75  41  29 NW16G22   29.80S
ROSEAU         SUNNY     72  48  43 NW13G20   29.78S
WARROAD        SUNNY     70  50  49 NW14G20   29.77R
THIEF RVR FALL MOSUNNY   73  45  35 NW15G23   29.82S
CROOKSTON      SUNNY     75  46  35 N14       29.82F
FOSSTON        MOSUNNY   75  43  31 NW17G23   29.83S
DETROIT LAKES  SUNNY     73  50  43 NW16G24   29.85R
MOORHEAD       SUNNY     75  52  43 NW14G21   29.84S
PARK RAPIDS    SUNNY     75  47  36 NW17G24   29.81R
MAHNOMEN       FAIR      72  48  42 NW17      29.83S
$$
MNZ006-009>011-018-025>026-030000-
   North Central Minnesota

CITY           SKY/WX    TMP DP  RH WIND       PRES   REMARKS
BAUDETTE       CLOUDY    68  48  48 NW13      29.74S
FLAG ISLAND    CLOUDY    70  48  46 NW23      29.73S
INTL FALLS     CLOUDY    69  44  40 NW16G25   29.72R
WASKISH        PTSUNNY   72  52  49 W14G24    29.76S
BIG FORK       MOSUNNY   70  46  43 W5        29.75S
LONGVILLE      MOSUNNY   73  46  38 NW5G17    29.78S
GRAND RAPIDS   SUNNY     72  45  37 NW15G29   29.76S
CRANE LAKE     MOSUNNY   70  39  32 NW7G22    29.71S
ORR            MOSUNNY   70  41  35 NW13G23   29.70R
COOK           MOSUNNY   72  43  35 W18       29.72S
WALKER         FAIR      72  45  38 NW16G23   29.79R
$$
MNZ012-019>021-037-030000-
   Northeast Minnesota

CITY           SKY/WX    TMP DP  RH WIND       PRES   REMARKS
DULUTH         MOSUNNY   74  49  41 NW17G25   29.70R
ELY            SUNNY     68  39  34 NW18G26   29.69S
HIBBING        MOSUNNY   70  43  37 NW14G25   29.73R
EVELETH        MOSUNNY   72  41  33 NW15G21   29.73S
DULUTH HARBOR  MOSUNNY   77  55  47 NW21      29.68R
TWO HARBORS    SUNNY     77  52  41 NW12G22   29.66R
SILVER BAY     SUNNY     73  45  35 NW8G18    29.65R
GRAND MARAIS     N/A     76  46  34 MISG      29.60R
G MARAIS ARPRT MOSUNNY   66  43  42 NW10G16   29.66R
$$
MNZ029>031-032-039>041-046>048-054>057-064-030000-
   West Central Minnesota

CITY           SKY/WX    TMP DP  RH WIND       PRES   REMARKS
FERGUS FALLS   MOSUNNY   75  54  46 N16G22    29.82S
WHEATON        SUNNY     73  55  53 NW13G18   29.85R
MORRIS         MOSUNNY   75  57  53 N12G18    29.83R
ALEXANDRIA     SUNNY     75  52  44 N17       29.84R
ELBOW LAKE     FAIR      74  56  51 NW12      29.83S
WADENA         SUNNY     73  52  46 N16G22    29.81S
GLENWOOD       SUNNY     75  54  46 NW17G23   29.84R
APPLETON       MOSUNNY   81  55  41 N13       29.83S
BENSON         MOSUNNY   79  55  44 N13       29.82S
ORTONVILLE     MOSUNNY   79  54  41 NW14      29.84S
MADISON        SUNNY     79  55  44 NW15      29.84S
WILLMAR        FAIR      79  55  44 NW21G26   29.82S
$$
MNZ033>034-036-042>043-049>051-058-059-030000-
   Central Minnesota

CITY           SKY/WX    TMP DP  RH WIND       PRES   REMARKS
ST CLOUD       SUNNY     78  55  44 NW20G28   29.76R
SAUK CENTRE    FAIR      75  51  43 NW16G26   29.82R
PAYNESVILLE    SUNNY     74  52  46 W15G23    29.81R
AITKIN         SUNNY     73  48  40 NW8G21    29.76R
PINE RIVER     MOSUNNY   73  50  43 NW13G21   29.82S
BRAINERD       MOSUNNY   76  48  37 NW14G24   29.78R
STAPLES        SUNNY     73  46  38 NW18      29.80S
LONG PRAIRIE   FAIR      73  52  46 NW15G22   29.82R
LITTLE FALLS   SUNNY     75  45  33 W14G21    29.78S
LITCHFIELD     SUNNY     79  55  44 NW16      29.79S
BUFFALO        MOSUNNY   80  54  40 NW12G20   29.76S
MAPLE LAKE     SUNNY     79  59  50 W12G18    29.77R
$$
MNZ037-044-045-052-053-030000-
   East Central Minnesota

CITY           SKY/WX    TMP DP  RH WIND       PRES   REMARKS
PRINCETON      SUNNY     81  57  44 NW15G24   29.75R
MORA           SUNNY     75  54  46 NW16G24   29.75R
CAMBRIDGE      MOSUNNY   79  61  53 NW10      29.72R
RUSH CITY      MOSUNNY   77  56  48 NW14G20   29.72S
MOOSE LAKE     SUNNY     73  50  43 NW13G24   29.71R
HINCKLEY       FAIR      77  55  47 NW15      29.73R
CLOQUET        SUNNY     73  39  29 NW20G30   29.72R
MCGREGOR       SUNNY     73  46  38 NW16G23   29.76R
$$
MNZ071>073-080-081-089-090-097-098-030000-
   Southwest Minnesota

CITY           SKY/WX    TMP DP  RH WIND       PRES   REMARKS
MONTEVIDEO     SUNNY     81  57  44 N13G20    29.84F
GRANITE FALLS  MOSUNNY   77  57  49 W9        29.84S
CANBY          SUNNY     77  56  48 N10       29.86S
MARSHALL       SUNNY     79  55  44 N17G23    29.85S
REDWOOD FALLS  SUNNY     80  55  42 NW16G25   29.81R
OLIVIA         SUNNY     73  54  49 NW16G24   29.81S
PIPESTONE      SUNNY     81  63  54 NE9G16    29.86S
WINDOM         SUNNY     79  63  57 NW16G24   29.83R
WORTHINGTON    SUNNY     81  59  47 N14       29.85R
JACKSON        SUNNY     81  61  50 NW18      29.84R
TRACY          SUNNY     77  59  53 N16G22    29.84S
SLAYTON        SUNNY     79  61  54 N15       29.86S
$$
MNZ065>067-074>077-082>085-091>093-030000-
   South Central Minnesota

CITY           SKY/WX    TMP DP  RH WIND       PRES   REMARKS
MANKATO        MOSUNNY   81  59  47 NW18      29.76S
NEW ULM        SUNNY     79  55  44 NW14G24   29.79R
ST JAMES       SUNNY     81  63  54 NW15G23   29.81R
FAIRMONT       SUNNY     81  57  44 NW12G23   29.80R
GLENCOE        SUNNY     80  60  50 NW15      29.77R
FARIBAULT      SUNNY     81  63  54 NW13G22   29.75R
OWATONNA       SUNNY     81  63  54 NW20      29.75S
WASECA         SUNNY     79  61  53 NW12G21   29.77S
ALBERT LEA     SUNNY     82  61  47 NW9G21    29.76R
$$
MNZ078>079-086>088-094>096-030000-
   Southeast Minnesota

CITY           SKY/WX    TMP DP  RH WIND       PRES   REMARKS
ROCHESTER      MOSUNNY   80  64  58 NW15G29   29.74R
RED WING       MOSUNNY   82  61  47 N8        29.69S
STANTON        MOSUNNY   82  61  49 NW15      29.71S
DODGE CENTER   SUNNY     81  61  50 NW16G26     N/A
WINONA         SUNNY     82  63  51 NW10G25   29.68R
AUSTIN         SUNNY     84  63  48 NW16G22   29.74S
PRESTON        MOSUNNY   81  63  54 NW10      29.74R
$$
ABBREVIATIONS USED IN REMARKS
   TC - TEMPERATURES IN CELSIUS
  WCI - WIND CHILL INDEX
   HX - HEAT INDEX
  VSB - VISIBILITY
$$


USA.gov is the U.S. government's official web portal to all federal, state and local government web resources and services.